| time (UTC) | temp F | wind direction | speed knots | gust knots | rain 1hr in | rain 24hr in | rain mn in | humidity % | barometer mb |
| 20260505051547 | 37 | 276 | 7.0 | 9.6 | 0.00 | 0.00 | 0.00 | 74 | 1011.0 |
| 20260505041544 | 37 | 259 | 5.2 | 7.8 | 0.00 | 0.00 | 0.00 | 75 | 1011.1 |
| 20260505040050 | 37 | 267 | 5.2 | 7.8 | 0.00 | 0.00 | 0.00 | 75 | 1011.1 |
| 20260505034608 | 37 | 272 | 6.1 | 7.8 | 0.00 | 0.00 | 0.00 | 74 | 1011.2 |
| 20260505033051 | 37 | 273 | 6.1 | 8.7 | 0.00 | 0.00 | 0.00 | 74 | 1011.1 |
| 20260505031548 | 37 | 292 | 5.2 | 8.7 | 0.00 | 0.00 | 0.00 | 74 | 1010.8 |
| 20260505030051 | 37 | 279 | 4.3 | 8.7 | 0.00 | 0.00 | 0.00 | 73 | 1010.7 |
| 20260505024549 | 37 | 276 | 4.3 | 7.8 | 0.00 | 0.00 | 0.00 | 72 | 1010.7 |
| 20260505023049 | 37 | 327 | 4.3 | 9.6 | 0.00 | 0.00 | 0.00 | 72 | 1010.6 |
| 20260505021547 | 37 | 322 | 6.1 | 10.4 | 0.00 | 0.00 | 0.00 | 71 | 1010.7 |
| 20260505020044 | 37 | 331 | 6.1 | 12.2 | 0.00 | 0.00 | 0.00 | 70 | 1010.3 |
| 20260505014542 | 38 | 327 | 4.3 | 12.2 | 0.00 | 0.00 | 0.00 | 69 | 1010.5 |
| 20260505013047 | 38 | 340 | 7.8 | 13.0 | 0.00 | 0.00 | 0.00 | 68 | 1010.4 |
| 20260505011605 | 39 | 13 | 11.3 | 16.5 | 0.00 | 0.00 | 0.00 | 67 | 1010.1 |
| 20260505010050 | 39 | 350 | 10.4 | 15.6 | 0.00 | 0.00 | 0.00 | 67 | 1010.0 |
| 20260505004545 | 39 | 5 | 10.4 | 15.6 | 0.00 | 0.00 | 0.00 | 66 | 1009.8 |
| 20260505003053 | 39 | 355 | 13.0 | 20.0 | 0.00 | 0.00 | 0.00 | 65 | 1009.7 |
| 20260505001603 | 40 | 30 | 11.3 | 17.4 | 0.00 | 0.00 | 0.00 | 63 | 1010.0 |
| 20260505000105 | 40 | 32 | 12.2 | 16.5 | 0.00 | 0.00 | 0.00 | 62 | 1009.7 |
| 20260504234547 | 41 | 339 | 13.0 | 17.4 | 0.00 | 0.00 | 0.00 | 61 | 1009.4 |
| 20260504233057 | 41 | 350 | 13.0 | 20.9 | 0.00 | 0.00 | 0.00 | 61 | 1009.3 |
| 20260504231541 | 42 | 9 | 12.2 | 19.1 | 0.00 | 0.00 | 0.00 | 61 | 1009.4 |
| 20260504230047 | 42 | 355 | 13.0 | 18.2 | 0.00 | 0.00 | 0.00 | 60 | 1009.2 |
| 20260504224548 | 42 | 360 | 13.0 | 19.1 | 0.00 | 0.00 | 0.00 | 60 | 1009.2 |
| 20260504223042 | 43 | 336 | 11.3 | 19.1 | 0.00 | 0.00 | 0.00 | 58 | 1009.0 |
| 20260504221542 | 44 | 23 | 13.9 | 19.1 | 0.00 | 0.00 | 0.00 | 55 | 1009.0 |
| 20260504220048 | 44 | 328 | 15.6 | 22.6 | 0.00 | 0.00 | 0.00 | 54 | 1008.9 |
| 20260504214549 | 46 | 360 | 13.0 | 20.9 | 0.00 | 0.00 | 0.00 | 52 | 1008.9 |
| 20260504213048 | 46 | 286 | 11.3 | 19.1 | 0.00 | 0.00 | 0.00 | 55 | 1009.1 |
| 20260504211541 | 46 | 327 | 8.7 | 17.4 | 0.00 | 0.00 | 0.00 | 55 | 1009.3 |
| 20260504210041 | 46 | 280 | 11.3 | 18.2 | 0.00 | 0.00 | 0.00 | 54 | 1009.4 |
| 20260504204541 | 46 | 341 | 14.8 | 20.0 | 0.00 | 0.00 | 0.00 | 54 | 1009.3 |
| 20260504203052 | 48 | 342 | 13.9 | 20.9 | 0.00 | 0.00 | 0.00 | 53 | 1009.2 |
| 20260504201544 | 48 | 350 | 12.2 | 20.0 | 0.00 | 0.00 | 0.00 | 54 | 1009.3 |
| 20260504200049 | 47 | 355 | 11.3 | 18.2 | 0.00 | 0.00 | 0.00 | 55 | 1009.2 |
| 20260504194545 | 47 | 338 | 11.3 | 19.1 | 0.00 | 0.00 | 0.00 | 57 | 1009.4 |
| 20260504193040 | 46 | 321 | 10.4 | 20.9 | 0.00 | 0.00 | 0.00 | 59 | 1009.5 |
| 20260504191606 | 46 | 303 | 9.6 | 19.1 | 0.00 | 0.00 | 0.00 | 57 | 1009.6 |
| 20260504190048 | 46 | 295 | 12.2 | 19.1 | 0.00 | 0.00 | 0.00 | 59 | 1009.8 |
| 20260504184541 | 46 | 275 | 13.9 | 20.0 | 0.00 | 0.00 | 0.00 | 59 | 1009.6 |
| 20260504183041 | 46 | 324 | 7.8 | 15.6 | 0.00 | 0.00 | 0.00 | 60 | 1009.7 |
| 20260504181551 | 45 | 325 | 8.7 | 17.4 | 0.00 | 0.00 | 0.00 | 62 | 1009.7 |
| 20260504180048 | 45 | 5 | 11.3 | 19.1 | 0.00 | 0.00 | 0.00 | 60 | 1009.7 |
| 20260504174544 | 45 | 350 | 12.2 | 21.7 | 0.00 | 0.00 | 0.00 | 61 | 1009.8 |